| time (UTC) | temp C | wind direction | speed KPH | gust KPH | rain 1hr cm | rain 24hr cm | rain mn cm | humidity % | barometer mb |
| 20260507234614 | 15 | 112 | 0.0 | 0.0 | 0.00 | 0.00 | 0.00 | 76 | 1014.2 |
| 20260507234114 | 15 | 112 | 0.0 | 0.0 | 0.00 | 0.00 | 0.00 | 76 | 1014.1 |
| 20260507233614 | 15 | 112 | 0.0 | 0.0 | 0.00 | 0.00 | 0.00 | 76 | 1014.1 |
| 20260507233114 | 15 | 112 | 0.0 | 0.0 | 0.00 | 0.00 | 0.00 | 76 | 1014.1 |
| 20260507232614 | 16 | 112 | 0.0 | 0.0 | 0.00 | 0.00 | 0.00 | 76 | 1014.1 |
| 20260507232113 | 16 | 112 | 0.0 | 0.0 | 0.00 | 0.00 | 0.00 | 76 | 1014.1 |
| 20260507231613 | 16 | 112 | 0.0 | 0.0 | 0.00 | 0.00 | 0.00 | 76 | 1014.2 |
| 20260507231112 | 16 | 112 | 0.0 | 0.0 | 0.00 | 0.00 | 0.00 | 76 | 1014.2 |
| 20260507230612 | 16 | 112 | 0.0 | 0.0 | 0.00 | 0.00 | 0.00 | 76 | 1014.3 |
| 20260507230112 | 16 | 112 | 0.0 | 0.0 | 0.00 | 0.00 | 0.00 | 76 | 1014.4 |
| 20260507225612 | 16 | 112 | 0.0 | 0.0 | 0.00 | 0.00 | 0.00 | 76 | 1014.3 |
| 20260507225112 | 16 | 112 | 0.0 | 0.0 | 0.00 | 0.00 | 0.00 | 76 | 1014.3 |
| 20260507224611 | 16 | 112 | 0.0 | 0.0 | 0.00 | 0.00 | 0.00 | 76 | 1014.3 |
| 20260507224111 | 16 | 112 | 0.0 | 0.0 | 0.00 | 0.00 | 0.00 | 76 | 1014.2 |
| 20260507223611 | 16 | 112 | 0.0 | 0.0 | 0.00 | 0.00 | 0.00 | 76 | 1014.2 |
| 20260507223111 | 16 | 112 | 0.0 | 0.0 | 0.00 | 0.00 | 0.00 | 76 | 1014.1 |
| 20260507222611 | 16 | 112 | 0.0 | 0.0 | 0.00 | 0.00 | 0.00 | 76 | 1014.1 |
| 20260507222110 | 16 | 112 | 0.0 | 0.0 | 0.00 | 0.00 | 0.00 | 76 | 1014.1 |
| 20260507221610 | 16 | 112 | 0.0 | 0.0 | 0.00 | 0.00 | 0.00 | 76 | 1014.0 |
| 20260507220610 | 16 | 113 | 0.0 | 0.0 | 0.00 | 0.00 | 0.00 | 76 | 1014.0 |
| 20260507220109 | 16 | 114 | 0.0 | 0.0 | 0.00 | 0.00 | 0.00 | 75 | 1014.0 |
| 20260507215609 | 16 | 114 | 0.0 | 0.0 | 0.00 | 0.00 | 0.00 | 75 | 1013.9 |
| 20260507215109 | 16 | 106 | 0.0 | 0.0 | 0.00 | 0.00 | 0.00 | 75 | 1014.0 |
| 20260507214609 | 16 | 104 | 0.0 | 0.0 | 0.00 | 0.00 | 0.00 | 75 | 1013.9 |
| 20260507214108 | 16 | 119 | 0.0 | 0.0 | 0.00 | 0.00 | 0.00 | 75 | 1014.0 |
| 20260507213608 | 17 | 122 | 0.0 | 0.0 | 0.00 | 0.00 | 0.00 | 75 | 1014.0 |
| 20260507213108 | 17 | 122 | 0.0 | 0.0 | 0.00 | 0.00 | 0.00 | 75 | 1013.9 |
| 20260507212608 | 17 | 126 | 0.0 | 0.0 | 0.00 | 0.00 | 0.00 | 74 | 1013.9 |
| 20260507212107 | 17 | 127 | 0.0 | 0.0 | 0.00 | 0.00 | 0.00 | 74 | 1013.9 |
| 20260507211607 | 17 | 120 | 0.0 | 0.0 | 0.00 | 0.00 | 0.00 | 74 | 1013.9 |
| 20260507211107 | 17 | 93 | 0.0 | 0.0 | 0.00 | 0.00 | 0.00 | 74 | 1013.8 |
| 20260507210607 | 17 | 93 | 0.0 | 0.0 | 0.00 | 0.00 | 0.00 | 74 | 1013.9 |
| 20260507210107 | 17 | 91 | 0.0 | 0.0 | 0.00 | 0.00 | 0.00 | 73 | 1013.9 |
| 20260507205606 | 17 | 91 | 0.0 | 0.0 | 0.00 | 0.00 | 0.00 | 73 | 1013.9 |
| 20260507205106 | 17 | 91 | 0.0 | 0.0 | 0.00 | 0.00 | 0.00 | 73 | 1013.9 |
| 20260507204606 | 18 | 91 | 0.0 | 0.0 | 0.00 | 0.00 | 0.00 | 72 | 1014.0 |
| 20260507204106 | 18 | 91 | 0.0 | 0.0 | 0.00 | 0.00 | 0.00 | 72 | 1014.1 |
| 20260507203605 | 18 | 91 | 0.0 | 0.0 | 0.00 | 0.00 | 0.00 | 72 | 1014.1 |
| 20260507203105 | 18 | 91 | 0.0 | 0.0 | 0.00 | 0.00 | 0.00 | 72 | 1014.1 |
| 20260507202604 | 18 | 91 | 0.0 | 0.0 | 0.00 | 0.00 | 0.00 | 72 | 1014.2 |
| 20260507202104 | 18 | 91 | 0.0 | 0.0 | 0.00 | 0.00 | 0.00 | 72 | 1014.2 |
| 20260507201604 | 18 | 91 | 0.0 | 0.0 | 0.00 | 0.00 | 0.00 | 72 | 1014.1 |
| 20260507201103 | 18 | 89 | 0.0 | 0.0 | 0.00 | 0.00 | 0.00 | 71 | 1014.1 |
| 20260507200603 | 18 | 91 | 0.0 | 0.0 | 0.00 | 0.00 | 0.00 | 71 | 1014.1 |
| 20260507200103 | 18 | 100 | 0.0 | 0.0 | 0.00 | 0.00 | 0.00 | 71 | 1014.2 |
| 20260507195601 | 18 | 104 | 0.0 | 0.0 | 0.00 | 0.00 | 0.00 | 71 | 1014.1 |
| 20260507195217 | 18 | 81 | 3.2 | 0.0 | 0.00 | 0.00 | 0.00 | 71 | 1014.1 |
| 20260507195101 | 18 | 81 | 3.2 | 0.0 | 0.00 | 0.00 | 0.00 | 71 | 1014.1 |
| 20260507194601 | 18 | 89 | 0.0 | 0.0 | 0.00 | 0.00 | 0.00 | 71 | 1014.1 |
| 20260507194059 | 18 | 102 | 0.0 | 0.0 | 0.00 | 0.00 | 0.00 | 71 | 1014.1 |
| 20260507193558 | 18 | 72 | 0.0 | 0.0 | 0.00 | 0.00 | 0.00 | 70 | 1014.0 |
| 20260507192558 | 18 | 101 | 0.0 | 0.0 | 0.00 | 0.00 | 0.00 | 70 | 1013.9 |
| 20260507192137 | 18 | 102 | 0.0 | 0.0 | 0.00 | 0.00 | 0.00 | 70 | 1013.9 |
| 20260507192056 | 18 | 102 | 0.0 | 0.0 | 0.00 | 0.00 | 0.00 | 70 | 1013.9 |
| 20260507191556 | 18 | 102 | 0.0 | 0.0 | 0.00 | 0.00 | 0.00 | 70 | 1013.9 |
| 20260507191155 | 18 | 102 | 0.0 | 0.0 | 0.00 | 0.00 | 0.00 | 70 | 1013.9 |
| 20260507191056 | 18 | 102 | 0.0 | 0.0 | 0.00 | 0.00 | 0.00 | 70 | 1013.9 |
| 20260507190702 | 18 | 102 | 0.0 | 0.0 | 0.00 | 0.00 | 0.00 | 70 | 1013.8 |
| 20260507190556 | 18 | 102 | 0.0 | 0.0 | 0.00 | 0.00 | 0.00 | 70 | 1013.8 |
| 20260507190055 | 18 | 113 | 0.0 | 0.0 | 0.00 | 0.00 | 0.00 | 69 | 1013.7 |
| 20260507185554 | 18 | 105 | 0.0 | 0.0 | 0.00 | 0.00 | 0.00 | 69 | 1013.8 |
| 20260507185054 | 18 | 103 | 0.0 | 0.0 | 0.00 | 0.00 | 0.00 | 69 | 1013.6 |
| 20260507184554 | 18 | 111 | 1.6 | 0.0 | 0.00 | 0.00 | 0.00 | 69 | 1013.6 |
| 20260507184054 | 18 | 112 | 3.2 | 0.0 | 0.00 | 0.00 | 0.00 | 69 | 1013.6 |
| 20260507183553 | 18 | 106 | 0.0 | 0.0 | 0.00 | 0.00 | 0.00 | 69 | 1013.5 |
| 20260507183053 | 19 | 106 | 0.0 | 0.0 | 0.00 | 0.00 | 0.00 | 69 | 1013.6 |
| 20260507182552 | 19 | 106 | 0.0 | 0.0 | 0.00 | 0.00 | 0.00 | 69 | 1013.6 |
| 20260507182052 | 19 | 118 | 0.0 | 0.0 | 0.00 | 0.00 | 0.00 | 69 | 1013.5 |
| 20260507181552 | 19 | 106 | 4.8 | 0.0 | 0.00 | 0.00 | 0.00 | 69 | 1013.4 |
| 20260507181053 | 19 | 102 | 0.0 | 0.0 | 0.00 | 0.00 | 0.00 | 69 | 1013.3 |
| 20260507180648 | 19 | 114 | 11.3 | 0.0 | 0.00 | 0.00 | 0.00 | 70 | 1013.2 |
| 20260507180551 | 19 | 114 | 11.3 | 0.0 | 0.00 | 0.00 | 0.00 | 70 | 1013.2 |
| 20260507180404 | 19 | 122 | 16.1 | 0.0 | 0.00 | 0.00 | 0.00 | 70 | 1013.2 |
| 20260507180129 | 19 | 122 | 16.1 | 0.0 | 0.00 | 0.00 | 0.00 | 70 | 1013.2 |
| 20260507180051 | 19 | 122 | 16.1 | 0.0 | 0.00 | 0.00 | 0.00 | 70 | 1013.2 |
| 20260507175550 | 19 | 96 | 14.5 | 0.0 | 0.00 | 0.00 | 0.00 | 71 | 1013.1 |
| 20260507175147 | 19 | 110 | 11.3 | 0.0 | 0.00 | 0.00 | 0.00 | 71 | 1013.1 |
| 20260507175050 | 19 | 110 | 11.3 | 0.0 | 0.00 | 0.00 | 0.00 | 71 | 1013.1 |
| 20260507174550 | 19 | 104 | 6.4 | 0.0 | 0.00 | 0.00 | 0.00 | 71 | 1013.0 |
| 20260507174050 | 19 | 131 | 11.3 | 0.0 | 0.00 | 0.00 | 0.00 | 72 | 1012.8 |
| 20260507173550 | 19 | 113 | 6.4 | 0.0 | 0.00 | 0.00 | 0.00 | 72 | 1012.8 |
| 20260507173049 | 19 | 85 | 20.9 | 0.0 | 0.00 | 0.00 | 0.00 | 72 | 1012.8 |
| 20260507172549 | 19 | 110 | 16.1 | 0.0 | 0.00 | 0.00 | 0.00 | 73 | 1012.9 |
| 20260507172049 | 19 | 70 | 14.5 | 0.0 | 0.00 | 0.00 | 0.00 | 74 | 1012.9 |
| 20260507171549 | 19 | 110 | 8.0 | 0.0 | 0.00 | 0.00 | 0.00 | 74 | 1012.9 |
| 20260507171120 | 19 | 123 | 14.5 | 0.0 | 0.00 | 0.00 | 0.00 | 74 | 1012.9 |
| 20260507171048 | 19 | 123 | 14.5 | 0.0 | 0.00 | 0.00 | 0.00 | 74 | 1012.9 |
| 20260507170548 | 19 | 64 | 14.5 | 0.0 | 0.00 | 0.00 | 0.00 | 74 | 1012.9 |
| 20260507170048 | 19 | 106 | 17.7 | 0.0 | 0.00 | 0.00 | 0.00 | 73 | 1012.9 |
| 20260507165548 | 20 | 102 | 19.3 | 0.0 | 0.00 | 0.00 | 0.00 | 72 | 1012.9 |
| 20260507164547 | 20 | 96 | 4.8 | 0.0 | 0.00 | 0.00 | 0.00 | 70 | 1012.9 |
| 20260507164047 | 20 | 75 | 16.1 | 0.0 | 0.00 | 0.00 | 0.00 | 69 | 1012.9 |
| 20260507163547 | 20 | 67 | 16.1 | 0.0 | 0.00 | 0.00 | 0.00 | 67 | 1012.8 |
| 20260507163047 | 20 | 95 | 11.3 | 0.0 | 0.00 | 0.00 | 0.00 | 64 | 1012.8 |
| 20260507162546 | 20 | 77 | 4.8 | 0.0 | 0.00 | 0.00 | 0.00 | 62 | 1012.9 |
| 20260507162046 | 20 | 56 | 6.4 | 0.0 | 0.00 | 0.00 | 0.00 | 59 | 1012.9 |
| 20260507161546 | 20 | 75 | 6.4 | 0.0 | 0.00 | 0.00 | 0.00 | 57 | 1012.9 |
| 20260507161046 | 20 | 46 | 11.3 | 0.0 | 0.00 | 0.00 | 0.00 | 59 | 1012.9 |
| 20260507160545 | 20 | 108 | 1.6 | 0.0 | 0.00 | 0.00 | 0.00 | 59 | 1013.0 |
| 20260507160045 | 20 | 42 | 14.5 | 0.0 | 0.00 | 0.00 | 0.00 | 58 | 1013.0 |
| 20260507155545 | 20 | 106 | 11.3 | 0.0 | 0.00 | 0.00 | 0.00 | 59 | 1013.1 |
| 20260507155045 | 20 | 89 | 11.3 | 0.0 | 0.00 | 0.00 | 0.00 | 60 | 1013.1 |
| 20260507154545 | 20 | 46 | 16.1 | 0.0 | 0.00 | 0.00 | 0.00 | 60 | 1013.1 |
| 20260507154044 | 20 | 36 | 8.0 | 0.0 | 0.00 | 0.00 | 0.00 | 59 | 1013.1 |
| 20260507153544 | 20 | 56 | 12.9 | 0.0 | 0.00 | 0.00 | 0.00 | 56 | 1013.1 |
| 20260507153044 | 20 | 34 | 12.9 | 0.0 | 0.00 | 0.00 | 0.00 | 55 | 1013.1 |
| 20260507152544 | 20 | 38 | 16.1 | 0.0 | 0.00 | 0.00 | 0.00 | 56 | 1013.2 |
| 20260507152043 | 20 | 108 | 8.0 | 0.0 | 0.00 | 0.00 | 0.00 | 58 | 1013.1 |
| 20260507151543 | 20 | 61 | 3.2 | 0.0 | 0.00 | 0.00 | 0.00 | 57 | 1013.1 |
| 20260507151043 | 20 | 70 | 16.1 | 0.0 | 0.00 | 0.00 | 0.00 | 57 | 1013.1 |
| 20260507150543 | 20 | 31 | 11.3 | 0.0 | 0.00 | 0.00 | 0.00 | 56 | 1013.1 |
| 20260507150128 | 19 | 62 | 8.0 | 0.0 | 0.00 | 0.00 | 0.00 | 55 | 1013.1 |
| 20260507150043 | 19 | 62 | 8.0 | 0.0 | 0.00 | 0.00 | 0.00 | 55 | 1013.1 |
| 20260507145542 | 20 | 43 | 11.3 | 0.0 | 0.00 | 0.00 | 0.00 | 62 | 1013.1 |
| 20260507145042 | 19 | 16 | 14.5 | 0.0 | 0.00 | 0.00 | 0.00 | 61 | 1013.1 |
| 20260507144542 | 19 | 87 | 3.2 | 0.0 | 0.00 | 0.00 | 0.00 | 63 | 1013.2 |
| 20260507144041 | 20 | 46 | 14.5 | 0.0 | 0.00 | 0.00 | 0.00 | 62 | 1013.2 |
| 20260507143541 | 20 | 34 | 12.9 | 0.0 | 0.00 | 0.00 | 0.00 | 62 | 1013.2 |
| 20260507143041 | 20 | 51 | 4.8 | 0.0 | 0.00 | 0.00 | 0.00 | 61 | 1013.2 |
| 20260507142541 | 20 | 35 | 12.9 | 0.0 | 0.00 | 0.00 | 0.00 | 61 | 1013.2 |
| 20260507142041 | 20 | 42 | 0.0 | 0.0 | 0.00 | 0.00 | 0.00 | 60 | 1013.2 |
| 20260507141540 | 20 | 41 | 12.9 | 0.0 | 0.00 | 0.00 | 0.00 | 61 | 1013.3 |
| 20260507140537 | 20 | 68 | 8.0 | 0.0 | 0.00 | 0.00 | 0.00 | 59 | 1013.3 |
| 20260507140037 | 20 | 56 | 14.5 | 0.0 | 0.00 | 0.00 | 0.00 | 61 | 1013.3 |
| 20260507135537 | 19 | 40 | 3.2 | 0.0 | 0.00 | 0.00 | 0.00 | 61 | 1013.3 |
| 20260507135036 | 19 | 25 | 11.3 | 0.0 | 0.00 | 0.00 | 0.00 | 60 | 1013.4 |
| 20260507134536 | 20 | 43 | 12.9 | 0.0 | 0.00 | 0.00 | 0.00 | 58 | 1013.4 |
| 20260507134036 | 20 | 41 | 9.7 | 0.0 | 0.00 | 0.00 | 0.00 | 58 | 1013.4 |
| 20260507133536 | 20 | 354 | 12.9 | 0.0 | 0.00 | 0.00 | 0.00 | 57 | 1013.3 |
| 20260507133036 | 20 | 33 | 16.1 | 0.0 | 0.00 | 0.00 | 0.00 | 56 | 1013.3 |
| 20260507132535 | 19 | 359 | 14.5 | 0.0 | 0.00 | 0.00 | 0.00 | 57 | 1013.3 |
| 20260507132035 | 20 | 4 | 12.9 | 0.0 | 0.00 | 0.00 | 0.00 | 59 | 1013.4 |
| 20260507131535 | 20 | 37 | 16.1 | 0.0 | 0.00 | 0.00 | 0.00 | 57 | 1013.4 |
| 20260507131035 | 20 | 26 | 3.2 | 0.0 | 0.00 | 0.00 | 0.00 | 59 | 1013.3 |
| 20260507130534 | 20 | 35 | 8.0 | 0.0 | 0.00 | 0.00 | 0.00 | 59 | 1013.3 |
| 20260507130034 | 20 | 340 | 8.0 | 0.0 | 0.00 | 0.00 | 0.00 | 61 | 1013.3 |
| 20260507125533 | 19 | 18 | 14.5 | 0.0 | 0.00 | 0.00 | 0.00 | 60 | 1013.2 |
| 20260507125032 | 19 | 44 | 11.3 | 0.0 | 0.00 | 0.00 | 0.00 | 59 | 1013.3 |
| 20260507124532 | 19 | 39 | 14.5 | 0.0 | 0.00 | 0.00 | 0.00 | 60 | 1013.4 |
| 20260507124032 | 20 | 21 | 20.9 | 0.0 | 0.00 | 0.00 | 0.00 | 59 | 1013.3 |
| 20260507123823 | 20 | 39 | 17.7 | 0.0 | 0.00 | 0.00 | 0.00 | 59 | 1013.4 |
| 20260507123532 | 20 | 39 | 17.7 | 0.0 | 0.00 | 0.00 | 0.00 | 59 | 1013.4 |
| 20260507123032 | 19 | 354 | 16.1 | 0.0 | 0.00 | 0.00 | 0.00 | 59 | 1013.4 |
| 20260507122531 | 19 | 14 | 17.7 | 0.0 | 0.00 | 0.00 | 0.00 | 57 | 1013.4 |
| 20260507122031 | 19 | 27 | 14.5 | 0.0 | 0.00 | 0.00 | 0.00 | 53 | 1013.4 |
| 20260507121531 | 20 | 8 | 16.1 | 0.0 | 0.00 | 0.00 | 0.00 | 55 | 1013.4 |
| 20260507121031 | 20 | 4 | 11.3 | 0.0 | 0.00 | 0.00 | 0.00 | 52 | 1013.5 |
| 20260507120530 | 20 | 342 | 16.1 | 0.0 | 0.00 | 0.00 | 0.00 | 53 | 1013.5 |
| 20260507120030 | 20 | 11 | 14.5 | 0.0 | 0.00 | 0.00 | 0.00 | 54 | 1013.5 |
| 20260507115530 | 20 | 48 | 6.4 | 0.0 | 0.00 | 0.00 | 0.00 | 56 | 1013.5 |
| 20260507115030 | 19 | 8 | 8.0 | 0.0 | 0.00 | 0.00 | 0.00 | 58 | 1013.5 |
| 20260507114529 | 20 | 348 | 12.9 | 0.0 | 0.00 | 0.00 | 0.00 | 57 | 1013.5 |
| 20260507114029 | 20 | 35 | 12.9 | 0.0 | 0.00 | 0.00 | 0.00 | 53 | 1013.6 |
| 20260507113529 | 20 | 58 | 12.9 | 0.0 | 0.00 | 0.00 | 0.00 | 56 | 1013.6 |
| 20260507113029 | 20 | 43 | 11.3 | 0.0 | 0.00 | 0.00 | 0.00 | 57 | 1013.6 |
| 20260507112528 | 20 | 39 | 8.0 | 0.0 | 0.00 | 0.00 | 0.00 | 57 | 1013.5 |
| 20260507112028 | 19 | 25 | 9.7 | 0.0 | 0.00 | 0.00 | 0.00 | 60 | 1013.6 |
| 20260507111528 | 19 | 21 | 11.3 | 0.0 | 0.00 | 0.00 | 0.00 | 60 | 1013.7 |
| 20260507111107 | 19 | 347 | 6.4 | 0.0 | 0.00 | 0.00 | 0.00 | 58 | 1013.7 |
| 20260507111028 | 19 | 347 | 6.4 | 0.0 | 0.00 | 0.00 | 0.00 | 58 | 1013.7 |
| 20260507110528 | 20 | 25 | 17.7 | 0.0 | 0.00 | 0.00 | 0.00 | 56 | 1013.7 |
| 20260507110027 | 20 | 4 | 6.4 | 0.0 | 0.00 | 0.00 | 0.00 | 55 | 1013.7 |
| 20260507105527 | 20 | 348 | 6.4 | 0.0 | 0.00 | 0.00 | 0.00 | 57 | 1013.8 |
| 20260507105111 | 20 | 13 | 0.0 | 0.0 | 0.00 | 0.00 | 0.00 | 60 | 1013.7 |
| 20260507105027 | 20 | 13 | 0.0 | 0.0 | 0.00 | 0.00 | 0.00 | 60 | 1013.7 |
| 20260507104527 | 20 | 333 | 12.9 | 0.0 | 0.00 | 0.00 | 0.00 | 60 | 1013.7 |
| 20260507104026 | 20 | 316 | 17.7 | 0.0 | 0.00 | 0.00 | 0.00 | 56 | 1013.7 |
| 20260507103526 | 20 | 52 | 4.8 | 0.0 | 0.00 | 0.00 | 0.00 | 57 | 1013.7 |
| 20260507103026 | 20 | 341 | 8.0 | 0.0 | 0.00 | 0.00 | 0.00 | 57 | 1013.7 |
| 20260507102526 | 20 | 316 | 9.7 | 0.0 | 0.00 | 0.00 | 0.00 | 55 | 1013.7 |
| 20260507102025 | 21 | 349 | 12.9 | 0.0 | 0.00 | 0.00 | 0.00 | 54 | 1013.7 |
| 20260507101525 | 21 | 354 | 3.2 | 0.0 | 0.00 | 0.00 | 0.00 | 53 | 1013.7 |
| 20260507101025 | 21 | 338 | 6.4 | 0.0 | 0.00 | 0.00 | 0.00 | 53 | 1013.7 |
| 20260507100525 | 21 | 343 | 11.3 | 0.0 | 0.00 | 0.00 | 0.00 | 52 | 1013.8 |
| 20260507100025 | 20 | 27 | 8.0 | 0.0 | 0.00 | 0.00 | 0.00 | 52 | 1013.8 |
| 20260507095524 | 21 | 31 | 4.8 | 0.0 | 0.00 | 0.00 | 0.00 | 53 | 1013.8 |
| 20260507095024 | 20 | 324 | 14.5 | 0.0 | 0.00 | 0.00 | 0.00 | 55 | 1013.8 |
| 20260507094524 | 20 | 328 | 4.8 | 0.0 | 0.00 | 0.00 | 0.00 | 55 | 1013.8 |
| 20260507094024 | 20 | 342 | 9.7 | 0.0 | 0.00 | 0.00 | 0.00 | 54 | 1013.7 |
| 20260507093523 | 20 | 344 | 0.0 | 0.0 | 0.00 | 0.00 | 0.00 | 54 | 1013.9 |
| 20260507093055 | 20 | 332 | 8.0 | 0.0 | 0.00 | 0.00 | 0.00 | 54 | 1013.7 |
| 20260507093023 | 20 | 332 | 8.0 | 0.0 | 0.00 | 0.00 | 0.00 | 54 | 1013.7 |
| 20260507092523 | 20 | 308 | 8.0 | 0.0 | 0.00 | 0.00 | 0.00 | 55 | 1013.7 |
| 20260507092023 | 20 | 317 | 0.0 | 0.0 | 0.00 | 0.00 | 0.00 | 56 | 1013.7 |
| 20260507091522 | 20 | 321 | 8.0 | 0.0 | 0.00 | 0.00 | 0.00 | 58 | 1013.7 |
| 20260507091022 | 20 | 16 | 0.0 | 0.0 | 0.00 | 0.00 | 0.00 | 59 | 1013.7 |
| 20260507090522 | 20 | 354 | 3.2 | 0.0 | 0.00 | 0.00 | 0.00 | 59 | 1013.7 |
| 20260507090022 | 20 | 4 | 0.0 | 0.0 | 0.00 | 0.00 | 0.00 | 59 | 1013.7 |
| 20260507085522 | 19 | 354 | 4.8 | 0.0 | 0.00 | 0.00 | 0.00 | 60 | 1013.7 |
| 20260507085021 | 19 | 359 | 8.0 | 0.0 | 0.00 | 0.00 | 0.00 | 59 | 1013.7 |
| 20260507084521 | 19 | 359 | 16.1 | 0.0 | 0.00 | 0.00 | 0.00 | 61 | 1013.6 |
| 20260507084021 | 20 | 354 | 11.3 | 0.0 | 0.00 | 0.00 | 0.00 | 63 | 1013.6 |
| 20260507083521 | 20 | 354 | 3.2 | 0.0 | 0.00 | 0.00 | 0.00 | 63 | 1013.5 |
| 20260507083020 | 20 | 34 | 12.9 | 0.0 | 0.00 | 0.00 | 0.00 | 63 | 1013.5 |
| 20260507082520 | 20 | 317 | 6.4 | 0.0 | 0.00 | 0.00 | 0.00 | 64 | 1013.4 |
| 20260507082020 | 20 | 9 | 0.0 | 0.0 | 0.00 | 0.00 | 0.00 | 65 | 1013.3 |
| 20260507081519 | 20 | 331 | 0.0 | 0.0 | 0.00 | 0.00 | 0.00 | 64 | 1013.2 |
| 20260507081018 | 21 | 319 | 14.5 | 0.0 | 0.00 | 0.00 | 0.00 | 59 | 1013.2 |
| 20260507080518 | 21 | 266 | 0.0 | 0.0 | 0.00 | 0.00 | 0.00 | 55 | 1013.1 |
| 20260507080017 | 20 | 242 | 0.0 | 0.0 | 0.00 | 0.00 | 0.00 | 55 | 1013.1 |
| 20260507075517 | 20 | 230 | 0.0 | 0.0 | 0.00 | 0.00 | 0.00 | 56 | 1013.1 |
| 20260507075017 | 20 | 243 | 0.0 | 0.0 | 0.00 | 0.00 | 0.00 | 58 | 1013.1 |
| 20260507074517 | 20 | 235 | 0.0 | 0.0 | 0.00 | 0.00 | 0.00 | 59 | 1013.1 |
| 20260507074016 | 20 | 228 | 0.0 | 0.0 | 0.00 | 0.00 | 0.00 | 60 | 1013.1 |
| 20260507073516 | 20 | 229 | 0.0 | 0.0 | 0.00 | 0.00 | 0.00 | 61 | 1013.1 |
| 20260507073016 | 19 | 179 | 0.0 | 0.0 | 0.00 | 0.00 | 0.00 | 61 | 1013.2 |
| 20260507072516 | 19 | 182 | 0.0 | 0.0 | 0.00 | 0.00 | 0.00 | 62 | 1013.1 |
| 20260507072016 | 19 | 180 | 0.0 | 0.0 | 0.00 | 0.00 | 0.00 | 63 | 1013.1 |
| 20260507071515 | 19 | 75 | 0.0 | 0.0 | 0.00 | 0.00 | 0.00 | 64 | 1013.2 |
| 20260507071015 | 19 | 60 | 0.0 | 0.0 | 0.00 | 0.00 | 0.00 | 66 | 1013.2 |
| 20260507070515 | 19 | 60 | 0.0 | 0.0 | 0.00 | 0.00 | 0.00 | 66 | 1013.2 |
| 20260507070015 | 19 | 60 | 0.0 | 0.0 | 0.00 | 0.00 | 0.00 | 67 | 1013.2 |
| 20260507065514 | 18 | 54 | 0.0 | 0.0 | 0.00 | 0.00 | 0.00 | 69 | 1013.1 |
| 20260507065014 | 19 | 54 | 0.0 | 0.0 | 0.00 | 0.00 | 0.00 | 70 | 1013.1 |
| 20260507064514 | 18 | 54 | 0.0 | 0.0 | 0.00 | 0.00 | 0.00 | 71 | 1013.1 |
| 20260507064014 | 18 | 54 | 0.0 | 0.0 | 0.00 | 0.00 | 0.00 | 72 | 1013.1 |
| 20260507063513 | 18 | 54 | 0.0 | 0.0 | 0.00 | 0.00 | 0.00 | 73 | 1013.2 |
| 20260507063013 | 18 | 54 | 0.0 | 0.0 | 0.00 | 0.00 | 0.00 | 74 | 1013.2 |
| 20260507062513 | 18 | 45 | 0.0 | 0.0 | 0.00 | 0.00 | 0.00 | 75 | 1013.1 |
| 20260507062013 | 17 | 43 | 0.0 | 0.0 | 0.00 | 0.00 | 0.00 | 75 | 1013.1 |
| 20260507061513 | 17 | 42 | 0.0 | 0.0 | 0.00 | 0.00 | 0.00 | 75 | 1013.1 |
| 20260507061012 | 17 | 40 | 0.0 | 0.0 | 0.00 | 0.00 | 0.00 | 75 | 1013.1 |
| 20260507060512 | 17 | 40 | 0.0 | 0.0 | 0.00 | 0.00 | 0.00 | 75 | 1013.1 |
| 20260507060012 | 17 | 354 | 0.0 | 0.0 | 0.00 | 0.00 | 0.00 | 75 | 1013.1 |
| 20260507055512 | 16 | 354 | 0.0 | 0.0 | 0.00 | 0.00 | 0.00 | 74 | 1013.0 |
| 20260507055011 | 16 | 338 | 0.0 | 0.0 | 0.00 | 0.00 | 0.00 | 75 | 1013.0 |
| 20260507054511 | 16 | 156 | 0.0 | 0.0 | 0.00 | 0.00 | 0.00 | 75 | 1012.8 |
| 20260507054011 | 16 | 152 | 0.0 | 0.0 | 0.00 | 0.00 | 0.00 | 75 | 1012.8 |
| 20260507053511 | 16 | 131 | 0.0 | 0.0 | 0.00 | 0.00 | 0.00 | 75 | 1012.7 |
| 20260507053011 | 16 | 129 | 0.0 | 0.0 | 0.00 | 0.00 | 0.00 | 75 | 1012.7 |
| 20260507052510 | 16 | 129 | 0.0 | 0.0 | 0.00 | 0.00 | 0.00 | 75 | 1012.7 |
| 20260507052010 | 16 | 129 | 0.0 | 0.0 | 0.00 | 0.00 | 0.00 | 75 | 1012.6 |
| 20260507051510 | 16 | 129 | 0.0 | 0.0 | 0.00 | 0.00 | 0.00 | 75 | 1012.6 |
| 20260507051010 | 16 | 129 | 0.0 | 0.0 | 0.00 | 0.00 | 0.00 | 75 | 1012.7 |
| 20260507050509 | 16 | 129 | 0.0 | 0.0 | 0.00 | 0.00 | 0.00 | 75 | 1012.6 |
| 20260507050009 | 16 | 129 | 0.0 | 0.0 | 0.00 | 0.00 | 0.00 | 75 | 1012.6 |
| 20260507045509 | 16 | 129 | 0.0 | 0.0 | 0.00 | 0.00 | 0.00 | 75 | 1012.5 |
| 20260507045009 | 16 | 129 | 0.0 | 0.0 | 0.00 | 0.00 | 0.00 | 75 | 1012.4 |
| 20260507044508 | 16 | 129 | 0.0 | 0.0 | 0.00 | 0.00 | 0.00 | 75 | 1012.2 |
| 20260507044008 | 16 | 129 | 0.0 | 0.0 | 0.00 | 0.00 | 0.00 | 75 | 1012.2 |
| 20260507043508 | 16 | 129 | 0.0 | 0.0 | 0.00 | 0.00 | 0.00 | 75 | 1012.1 |
| 20260507043008 | 16 | 129 | 0.0 | 0.0 | 0.00 | 0.00 | 0.00 | 75 | 1012.1 |
| 20260507042507 | 16 | 129 | 0.0 | 0.0 | 0.00 | 0.00 | 0.00 | 75 | 1012.1 |
| 20260507042007 | 16 | 129 | 0.0 | 0.0 | 0.00 | 0.00 | 0.00 | 75 | 1012.2 |
| 20260507041507 | 16 | 129 | 0.0 | 0.0 | 0.00 | 0.00 | 0.00 | 75 | 1012.1 |
| 20260507041007 | 16 | 129 | 0.0 | 0.0 | 0.00 | 0.00 | 0.00 | 75 | 1012.1 |
| 20260507040507 | 16 | 124 | 0.0 | 0.0 | 0.00 | 0.00 | 0.00 | 75 | 1012.0 |
| 20260507040006 | 16 | 105 | 0.0 | 0.0 | 0.00 | 0.00 | 0.00 | 75 | 1011.9 |
| 20260507035506 | 16 | 102 | 0.0 | 0.0 | 0.00 | 0.00 | 0.00 | 75 | 1011.9 |
| 20260507035006 | 16 | 101 | 0.0 | 0.0 | 0.00 | 0.00 | 0.00 | 75 | 1011.8 |
| 20260507034506 | 16 | 116 | 0.0 | 0.0 | 0.00 | 0.00 | 0.00 | 75 | 1011.9 |
| 20260507034005 | 16 | 115 | 0.0 | 0.0 | 0.00 | 0.00 | 0.00 | 75 | 1011.9 |
| 20260507033505 | 16 | 115 | 0.0 | 0.0 | 0.00 | 0.00 | 0.00 | 76 | 1011.9 |
| 20260507033005 | 16 | 129 | 0.0 | 0.0 | 0.00 | 0.00 | 0.00 | 76 | 1011.8 |
| 20260507032505 | 16 | 129 | 0.0 | 0.0 | 0.00 | 0.00 | 0.00 | 76 | 1011.8 |
| 20260507032004 | 16 | 129 | 0.0 | 0.0 | 0.00 | 0.00 | 0.00 | 76 | 1011.8 |
| 20260507031736 | 16 | 129 | 0.0 | 0.0 | 0.00 | 0.00 | 0.00 | 76 | 1011.8 |
| 20260507031504 | 16 | 129 | 0.0 | 0.0 | 0.00 | 0.00 | 0.00 | 76 | 1011.8 |
| 20260507031004 | 16 | 130 | 0.0 | 0.0 | 0.00 | 0.00 | 0.00 | 76 | 1011.9 |
| 20260507030504 | 16 | 330 | 0.0 | 0.0 | 0.00 | 0.00 | 0.00 | 76 | 1011.8 |
| 20260507030004 | 16 | 330 | 0.0 | 0.0 | 0.00 | 0.00 | 0.00 | 75 | 1011.8 |
| 20260507025503 | 16 | 330 | 0.0 | 0.0 | 0.00 | 0.00 | 0.00 | 75 | 1011.8 |
| 20260507025003 | 16 | 330 | 0.0 | 0.0 | 0.00 | 0.00 | 0.00 | 75 | 1011.8 |
| 20260507024734 | 16 | 330 | 0.0 | 0.0 | 0.00 | 0.00 | 0.00 | 75 | 1011.8 |
| 20260507024503 | 16 | 330 | 0.0 | 0.0 | 0.00 | 0.00 | 0.00 | 75 | 1011.8 |
| 20260507024003 | 16 | 330 | 0.0 | 0.0 | 0.00 | 0.00 | 0.00 | 75 | 1011.8 |
| 20260507023502 | 16 | 330 | 0.0 | 0.0 | 0.00 | 0.00 | 0.00 | 75 | 1011.6 |
| 20260507023002 | 16 | 330 | 0.0 | 0.0 | 0.00 | 0.00 | 0.00 | 75 | 1011.6 |
| 20260507022502 | 16 | 330 | 0.0 | 0.0 | 0.00 | 0.00 | 0.00 | 75 | 1011.7 |
| 20260507022002 | 16 | 330 | 0.0 | 0.0 | 0.00 | 0.00 | 0.00 | 75 | 1011.8 |
| 20260507021501 | 16 | 330 | 0.0 | 0.0 | 0.00 | 0.00 | 0.00 | 75 | 1011.7 |
| 20260507021218 | 16 | 330 | 0.0 | 0.0 | 0.00 | 0.00 | 0.00 | 75 | 1011.8 |
| 20260507021001 | 16 | 330 | 0.0 | 0.0 | 0.00 | 0.00 | 0.00 | 75 | 1011.8 |
| 20260507020501 | 16 | 330 | 0.0 | 0.0 | 0.00 | 0.00 | 0.00 | 75 | 1011.8 |
| 20260507020001 | 16 | 330 | 0.0 | 0.0 | 0.00 | 0.00 | 0.00 | 75 | 1011.8 |
| 20260507015501 | 16 | 330 | 0.0 | 0.0 | 0.00 | 0.00 | 0.00 | 75 | 1011.7 |
| 20260507015000 | 16 | 330 | 0.0 | 0.0 | 0.00 | 0.00 | 0.00 | 75 | 1011.7 |
| 20260507014501 | 16 | 330 | 0.0 | 0.0 | 0.00 | 0.00 | 0.00 | 75 | 1011.7 |
| 20260507014000 | 17 | 330 | 0.0 | 0.0 | 0.00 | 0.00 | 0.00 | 75 | 1011.7 |
| 20260507013500 | 17 | 330 | 0.0 | 0.0 | 0.00 | 0.00 | 0.00 | 75 | 1011.7 |
| 20260507012959 | 17 | 330 | 0.0 | 0.0 | 0.00 | 0.00 | 0.00 | 75 | 1011.7 |
| 20260507012459 | 17 | 329 | 0.0 | 0.0 | 0.00 | 0.00 | 0.00 | 75 | 1011.7 |
| 20260507011959 | 17 | 329 | 0.0 | 0.0 | 0.00 | 0.00 | 0.00 | 75 | 1011.7 |
| 20260507011459 | 17 | 329 | 0.0 | 0.0 | 0.00 | 0.00 | 0.00 | 75 | 1011.7 |
| 20260507010959 | 17 | 329 | 0.0 | 0.0 | 0.00 | 0.00 | 0.00 | 74 | 1011.7 |
| 20260507010458 | 17 | 329 | 0.0 | 0.0 | 0.00 | 0.00 | 0.00 | 74 | 1011.7 |
| 20260507005958 | 17 | 328 | 0.0 | 0.0 | 0.00 | 0.00 | 0.00 | 74 | 1011.8 |
| 20260507005458 | 17 | 325 | 0.0 | 0.0 | 0.00 | 0.00 | 0.00 | 74 | 1011.7 |
| 20260507004958 | 17 | 33 | 0.0 | 0.0 | 0.00 | 0.00 | 0.00 | 74 | 1011.8 |
| 20260507004457 | 17 | 33 | 0.0 | 0.0 | 0.00 | 0.00 | 0.00 | 73 | 1011.8 |
| 20260507003957 | 17 | 33 | 0.0 | 0.0 | 0.00 | 0.00 | 0.00 | 73 | 1011.8 |
| 20260507003457 | 17 | 33 | 0.0 | 0.0 | 0.00 | 0.00 | 0.00 | 73 | 1011.7 |
| 20260507002957 | 17 | 280 | 0.0 | 0.0 | 0.00 | 0.00 | 0.00 | 72 | 1011.8 |
| 20260507002456 | 17 | 281 | 0.0 | 0.0 | 0.00 | 0.00 | 0.00 | 71 | 1011.8 |
| 20260507001956 | 17 | 280 | 0.0 | 0.0 | 0.00 | 0.00 | 0.00 | 71 | 1011.8 |
| 20260507001456 | 18 | 280 | 0.0 | 0.0 | 0.00 | 0.00 | 0.00 | 71 | 1011.8 |
| 20260507000956 | 18 | 280 | 0.0 | 0.0 | 0.00 | 0.00 | 0.00 | 70 | 1011.9 |
| 20260507000455 | 18 | 281 | 0.0 | 0.0 | 0.00 | 0.00 | 0.00 | 70 | 1011.9 |
| 20260506235955 | 18 | 281 | 0.0 | 0.0 | 0.00 | 0.00 | 0.00 | 69 | 1011.9 |
| 20260506235455 | 18 | 280 | 0.0 | 0.0 | 0.00 | 0.00 | 0.00 | 68 | 1011.9 |
| 20260506234955 | 18 | 237 | 0.0 | 0.0 | 0.00 | 0.00 | 0.00 | 68 | 1011.8 |